ニート彗星

P/2001 T3 ( NEAT )

English version
Home page
Updated on February 26, 2002

---------------------------------------------------------------------

・ プロフィール

発見日 2001年10月14日
発見光度 18.4等
発見者 Near-Earth-Asteroid Tracking Team (Jet Propulsion Laboratory)

・ 軌道要素

Epoch 2002 Feb. 15.0 TT = JDT 2452320.5
T 2002 Feb. 1.11046 TT                                  MPC
q   2.5057742            (2000.0)            P               Q
n   0.05934201     Peri.  356.23878     +0.60187879     -0.74998625
a   6.5097038      Node    56.53796     +0.74100308     +0.39640488
e   0.6150709      Incl.   19.19875     +0.29775217     +0.52951279
P  16.61

・ 星図

・ 光度変化

        m1 = 3.5 + 5 logΔ + 30.0 log r

---------------------------------------------------------------------

軌道要素は Dr. Brian G. Marsden の計算によるもので、 M.P.E.C. 2002-A88 に掲載されたものです。
星図は StellaNavigator Ver.2.0 for Windows (アストロアーツ 編著 / アスキー出版局刊) で作成したものです。
光度グラフはComet for Windowsで作成したものです。

---------------------------------------------------------------------

Copyright(C) Seiichi Yoshida (comet@aerith.net). All rights reserved.